HAZ8978 ZBAD-ZSHC

Flight info

Callsign HAZ8978
Flight time 1h 29m
Altitude 35100
Route ELKUR4K ELKUR W40 YQG W142 DALIM A593 DPX A470 IGRAT IGRAT91
Aircraft A320/M-SDE3FGHIRWY/LB1

Departure

Time 2026-04-15 13:41
Airport Beijing Daxing International Airport (ZBAD)

Arrival

Time 2026-04-15 15:11
Airport Hangzhou Xiaoshan International Airport (ZSHC)
Time Latitude Longitude Altitude Speed Heading
2026-04-15 13:17 39.51433 116.41677 89 ft 0 kts 250°
2026-04-15 13:28 39.51433 116.41678 84 ft 1 kts 250°
2026-04-15 13:29 39.51439 116.41698 84 ft 3 kts 251°
2026-04-15 13:29 39.51445 116.41722 84 ft 3 kts 248°
2026-04-15 13:29 39.51454 116.41746 89 ft 3 kts 229°
2026-04-15 13:29 39.51463 116.41758 88 ft 3 kts 167°
2026-04-15 13:30 39.51470 116.41755 90 ft 1 kts 143°
2026-04-15 13:30 39.51471 116.41753 84 ft 0 kts 143°
2026-04-15 13:32 39.51467 116.41756 88 ft 3 kts 146°
2026-04-15 13:32 39.51424 116.41798 87 ft 10 kts 143°
2026-04-15 13:32 39.51384 116.41869 85 ft 10 kts 98°
2026-04-15 13:32 39.51393 116.41967 84 ft 13 kts 82°
2026-04-15 13:33 39.51406 116.42099 84 ft 16 kts 83°
2026-04-15 13:33 39.51420 116.42256 86 ft 18 kts 83°
2026-04-15 13:33 39.51430 116.42354 86 ft 8 kts 82°
2026-04-15 13:33 39.51435 116.42417 86 ft 6 kts 85°
2026-04-15 13:34 39.51440 116.42467 89 ft 5 kts 82°
2026-04-15 13:34 39.51444 116.42504 86 ft 3 kts 83°
2026-04-15 13:34 39.51447 116.42529 86 ft 2 kts 82°
2026-04-15 13:34 39.51448 116.42547 85 ft 3 kts 84°
2026-04-15 13:35 39.51450 116.42572 85 ft 6 kts 85°
2026-04-15 13:35 39.51460 116.42673 85 ft 10 kts 82°
2026-04-15 13:35 39.51470 116.42784 88 ft 14 kts 81°
2026-04-15 13:35 39.51485 116.42929 87 ft 17 kts 83°
2026-04-15 13:36 39.51497 116.43054 90 ft 13 kts 78°
2026-04-15 13:36 39.51551 116.43112 91 ft 6 kts 12°
2026-04-15 13:36 39.51559 116.43115 90 ft 0 kts 12°
2026-04-15 13:39 39.51566 116.43117 91 ft 0 kts 13°
2026-04-15 13:39 39.51578 116.43120 94 ft 7 kts 12°
2026-04-15 13:40 39.51633 116.43158 99 ft 9 kts 50°
2026-04-15 13:40 39.51652 116.43225 97 ft 10 kts 87°
2026-04-15 13:40 39.51648 116.43260 98 ft 0 kts 103°
2026-04-15 13:40 39.51639 116.43307 98 ft 30 kts 102°
2026-04-15 13:41 39.51534 116.43889 98 ft 99 kts 103°
2026-04-15 13:41 39.51334 116.44998 98 ft 151 kts 103°
2026-04-15 13:41 39.51075 116.46440 478 ft 164 kts 104°
2026-04-15 13:41 39.50817 116.47882 1158 ft 165 kts 108°
2026-04-15 13:42 39.50557 116.49335 1808 ft 167 kts 109°
2026-04-15 13:42 39.50277 116.50868 2181 ft 185 kts 109°
2026-04-15 13:42 39.49961 116.52587 2453 ft 208 kts 109°
2026-04-15 13:42 39.49611 116.54506 2719 ft 231 kts 108°
2026-04-15 13:43 39.49221 116.56639 3062 ft 256 kts 107°
2026-04-15 13:43 39.48801 116.58954 3654 ft 270 kts 107°
2026-04-15 13:43 39.48375 116.61346 4477 ft 275 kts 107°
2026-04-15 13:43 39.47943 116.63780 5336 ft 280 kts 106°
2026-04-15 13:44 39.47538 116.66256 6210 ft 283 kts 105°
2026-04-15 13:44 39.47164 116.68780 7030 ft 287 kts 104°
2026-04-15 13:44 39.46799 116.71335 7857 ft 290 kts 103°
2026-04-15 13:44 39.46416 116.73912 8685 ft 293 kts 107°
2026-04-15 13:45 39.45598 116.76308 9486 ft 292 kts 127°
2026-04-15 13:45 39.44211 116.78205 10236 ft 291 kts 147°
2026-04-15 13:45 39.42422 116.79428 10835 ft 298 kts 161°
2026-04-15 13:47 39.26631 116.87313 14323 ft 369 kts 167°
2026-04-15 13:47 39.24098 116.87724 14909 ft 367 kts 185°
2026-04-15 13:47 39.21599 116.87135 15513 ft 366 kts 198°
2026-04-15 13:48 39.19132 116.86251 16102 ft 370 kts 198°
2026-04-15 13:48 39.16648 116.85348 16718 ft 372 kts 198°
2026-04-15 13:48 39.14146 116.84437 17293 ft 376 kts 198°
2026-04-15 13:48 39.11621 116.83517 17877 ft 379 kts 198°
2026-04-15 13:49 39.09078 116.82591 18424 ft 381 kts 198°
2026-04-15 13:49 39.06514 116.81661 18925 ft 384 kts 198°
2026-04-15 13:49 39.03933 116.80733 19435 ft 386 kts 198°
2026-04-15 13:49 39.01342 116.79806 19950 ft 388 kts 198°
2026-04-15 13:50 38.98734 116.78878 20462 ft 390 kts 198°
2026-04-15 13:50 38.96115 116.77945 20946 ft 392 kts 198°
2026-04-15 13:50 38.93482 116.77004 21434 ft 394 kts 198°
2026-04-15 13:50 38.90836 116.76056 21917 ft 396 kts 199°
2026-04-15 13:51 38.88178 116.75109 22398 ft 398 kts 199°
2026-04-15 13:51 38.85508 116.74161 22860 ft 400 kts 199°
2026-04-15 13:51 38.82820 116.73205 23327 ft 402 kts 199°
2026-04-15 13:51 38.80122 116.72240 23739 ft 404 kts 199°
2026-04-15 13:52 38.77410 116.71269 24098 ft 406 kts 199°
2026-04-15 13:52 38.74686 116.70294 24456 ft 408 kts 199°
2026-04-15 13:52 38.71945 116.69316 24814 ft 410 kts 199°
2026-04-15 13:52 38.69193 116.68340 25167 ft 411 kts 199°
2026-04-15 13:53 38.66429 116.67364 25526 ft 413 kts 199°
2026-04-15 13:53 38.63621 116.66509 25869 ft 418 kts 193°
2026-04-15 13:53 38.60709 116.66111 26211 ft 422 kts 190°
2026-04-15 13:53 38.57773 116.65777 26525 ft 425 kts 190°
2026-04-15 13:54 38.54816 116.65441 26844 ft 428 kts 190°
2026-04-15 13:54 38.51846 116.65104 27164 ft 430 kts 190°
2026-04-15 13:54 38.48858 116.64763 27485 ft 432 kts 190°
2026-04-15 13:54 38.45862 116.64419 27787 ft 434 kts 190°
2026-04-15 13:55 38.42845 116.64073 28087 ft 436 kts 191°
2026-04-15 13:55 38.39818 116.63724 28349 ft 438 kts 191°
2026-04-15 13:55 38.36771 116.63371 28578 ft 441 kts 191°
2026-04-15 13:55 38.33704 116.63016 28831 ft 444 kts 191°
2026-04-15 13:56 38.30598 116.62830 29088 ft 451 kts 184°
2026-04-15 13:56 38.27447 116.63243 29352 ft 460 kts 175°
2026-04-15 13:56 38.24317 116.64269 29612 ft 467 kts 169°
2026-04-15 13:56 38.21204 116.65444 29982 ft 467 kts 169°
2026-04-15 13:57 38.18092 116.66612 30306 ft 466 kts 169°
2026-04-15 13:57 38.14984 116.67769 30642 ft 465 kts 169°
2026-04-15 13:57 38.11884 116.68914 30989 ft 463 kts 169°
2026-04-15 13:57 38.08793 116.70058 31343 ft 462 kts 169°
2026-04-15 13:58 38.05715 116.71220 31699 ft 461 kts 169°
2026-04-15 13:58 38.02652 116.72395 32057 ft 459 kts 169°
2026-04-15 13:58 37.99599 116.73572 32414 ft 458 kts 169°
2026-04-15 13:58 37.96553 116.74746 32772 ft 456 kts 169°
2026-04-15 13:59 37.93520 116.75912 33130 ft 455 kts 169°
2026-04-15 13:59 37.90495 116.77067 33485 ft 453 kts 169°
2026-04-15 13:59 37.87479 116.78213 33829 ft 452 kts 169°
2026-04-15 13:59 37.84475 116.79354 34153 ft 450 kts 170°
2026-04-15 14:00 37.81474 116.80492 34444 ft 450 kts 170°
2026-04-15 14:00 37.78483 116.81626 34720 ft 449 kts 170°
2026-04-15 14:00 37.75493 116.82762 34970 ft 449 kts 171°
2026-04-15 14:00 37.72495 116.83899 35067 ft 452 kts 171°
2026-04-15 14:01 37.63380 116.87333 35084 ft 461 kts 171°
2026-04-15 14:02 37.57225 116.89641 35087 ft 462 kts 171°
2026-04-15 14:02 37.51068 116.91953 35084 ft 462 kts 171°
2026-04-15 14:03 37.44910 116.94254 35059 ft 462 kts 171°
2026-04-15 14:03 37.38747 116.96554 35063 ft 462 kts 171°
2026-04-15 14:04 37.32581 116.98854 35076 ft 463 kts 171°
2026-04-15 14:04 37.26422 117.01271 35080 ft 466 kts 168°
2026-04-15 14:05 37.20330 117.04137 35076 ft 469 kts 167°
2026-04-15 14:05 37.14264 117.07137 35087 ft 468 kts 167°
2026-04-15 14:06 37.08191 117.10040 35092 ft 467 kts 168°
2026-04-15 14:06 37.02104 117.12859 35092 ft 466 kts 168°
2026-04-15 14:07 36.96005 117.15671 35051 ft 468 kts 168°
2026-04-15 14:07 36.89896 117.18505 35058 ft 469 kts 168°
2026-04-15 14:08 36.83731 117.21036 35071 ft 459 kts 178°
2026-04-15 14:08 36.77504 117.21574 35071 ft 445 kts 189°
2026-04-15 14:09 36.71361 117.21523 35075 ft 444 kts 189°
2026-04-15 14:09 36.65138 117.21472 35085 ft 444 kts 189°
2026-04-15 14:10 36.59001 117.21431 35089 ft 444 kts 189°
2026-04-15 14:10 36.52826 117.21392 35072 ft 444 kts 188°
2026-04-15 14:11 36.46655 117.21342 35085 ft 444 kts 188°
2026-04-15 14:11 36.40442 117.21856 35094 ft 458 kts 175°
2026-04-15 14:12 36.34262 117.24101 35095 ft 464 kts 172°
2026-04-15 14:12 36.28077 117.26411 35080 ft 464 kts 171°
2026-04-15 14:13 36.21887 117.28712 35094 ft 465 kts 171°
2026-04-15 14:13 36.15692 117.31008 35100 ft 465 kts 171°
2026-04-15 14:14 36.09492 117.33305 35106 ft 465 kts 171°
2026-04-15 14:14 36.03287 117.35589 35083 ft 466 kts 171°
2026-04-15 14:15 35.97053 117.37881 35085 ft 468 kts 171°
2026-04-15 14:15 35.90804 117.40220 35092 ft 470 kts 171°
2026-04-15 14:16 35.84539 117.42587 35098 ft 471 kts 171°
2026-04-15 14:16 35.78254 117.44943 35091 ft 472 kts 171°
2026-04-15 14:17 35.71957 117.47281 35103 ft 473 kts 171°
2026-04-15 14:17 35.65640 117.49621 35099 ft 475 kts 171°
2026-04-15 14:18 35.59314 117.51975 35107 ft 475 kts 171°
2026-04-15 14:18 35.52990 117.54326 35120 ft 475 kts 171°
2026-04-15 14:19 35.46660 117.56672 35128 ft 475 kts 171°
2026-04-15 14:19 35.40329 117.59010 35130 ft 475 kts 171°
2026-04-15 14:20 35.33996 117.61344 35142 ft 475 kts 171°
2026-04-15 14:20 35.27658 117.63677 35113 ft 475 kts 171°
2026-04-15 14:21 35.22396 117.65623 35118 ft 476 kts 171°
2026-04-15 14:21 35.16059 117.67966 35123 ft 476 kts 171°
2026-04-15 14:22 35.08687 117.70656 35126 ft 476 kts 172°
2026-04-15 14:22 35.02334 117.72971 35113 ft 476 kts 171°
2026-04-15 14:23 34.97013 117.74928 35116 ft 477 kts 171°
2026-04-15 14:23 34.90654 117.77260 35119 ft 478 kts 171°
2026-04-15 14:24 34.84283 117.79583 35129 ft 478 kts 171°
2026-04-15 14:24 34.77916 117.81914 35102 ft 478 kts 171°
2026-04-15 14:25 34.71586 117.84203 35125 ft 478 kts 172°
2026-04-15 14:25 34.65210 117.86487 35136 ft 477 kts 172°
2026-04-15 14:26 34.58840 117.88770 35136 ft 478 kts 172°
2026-04-15 14:26 34.52466 117.91058 35119 ft 477 kts 172°
2026-04-15 14:27 34.46096 117.93346 35125 ft 477 kts 172°
2026-04-15 14:27 34.39729 117.95628 35126 ft 477 kts 172°
2026-04-15 14:28 34.33357 117.97906 35132 ft 477 kts 172°
2026-04-15 14:28 34.26986 118.00179 35121 ft 477 kts 172°
2026-04-15 14:29 34.20625 118.02469 35128 ft 477 kts 171°
2026-04-15 14:29 34.14265 118.04788 35132 ft 477 kts 171°
2026-04-15 14:30 34.07913 118.07101 35126 ft 477 kts 171°
2026-04-15 14:30 34.01569 118.09392 35118 ft 475 kts 171°
2026-04-15 14:31 33.95237 118.11685 35130 ft 475 kts 171°
2026-04-15 14:31 33.88909 118.13992 35137 ft 475 kts 171°
2026-04-15 14:32 33.82581 118.16294 35140 ft 475 kts 171°
2026-04-15 14:32 33.76258 118.18593 35121 ft 474 kts 171°
2026-04-15 14:33 33.69945 118.20899 35133 ft 474 kts 171°
2026-04-15 14:33 33.63632 118.23200 35136 ft 474 kts 171°
2026-04-15 14:34 33.57324 118.25487 35134 ft 473 kts 171°
2026-04-15 14:34 33.51023 118.27772 35114 ft 473 kts 171°
2026-04-15 14:35 33.44720 118.30045 35119 ft 473 kts 171°
2026-04-15 14:35 33.38428 118.32319 35119 ft 472 kts 171°
2026-04-15 14:36 33.32139 118.34590 35118 ft 472 kts 171°
2026-04-15 14:36 33.25851 118.36854 35106 ft 471 kts 171°
2026-04-15 14:37 33.19577 118.39112 35102 ft 471 kts 171°
2026-04-15 14:37 33.13301 118.41381 35110 ft 471 kts 171°
2026-04-15 14:38 33.07033 118.43649 35116 ft 471 kts 171°
2026-04-15 14:38 33.00806 118.45895 35117 ft 471 kts 171°
2026-04-15 14:39 32.94532 118.48140 35119 ft 471 kts 171°
2026-04-15 14:39 32.88264 118.50387 35116 ft 470 kts 171°
2026-04-15 14:40 32.81998 118.52636 35110 ft 470 kts 171°
2026-04-15 14:40 32.75734 118.54881 35096 ft 470 kts 171°
2026-04-15 14:41 32.69468 118.57124 35104 ft 470 kts 171°
2026-04-15 14:41 32.63233 118.59533 35110 ft 474 kts 168°
2026-04-15 14:42 32.57070 118.62386 35111 ft 476 kts 166°
2026-04-15 14:42 32.50929 118.65333 35096 ft 476 kts 166°
2026-04-15 14:43 32.44775 118.68189 35087 ft 474 kts 167°
2026-04-15 14:43 32.38607 118.70965 35095 ft 474 kts 168°
2026-04-15 14:44 32.32436 118.73725 35093 ft 474 kts 168°
2026-04-15 14:44 32.26266 118.76509 35097 ft 475 kts 167°
2026-04-15 14:45 32.20100 118.79298 35083 ft 475 kts 168°
2026-04-15 14:45 32.13930 118.82080 35090 ft 475 kts 168°
2026-04-15 14:46 32.07757 118.84865 35090 ft 475 kts 168°
2026-04-15 14:46 32.01580 118.87639 35087 ft 475 kts 168°
2026-04-15 14:47 31.95404 118.90410 35067 ft 475 kts 169°
2026-04-15 14:47 31.89214 118.93181 34671 ft 476 kts 168°
2026-04-15 14:47 31.86141 118.94562 34209 ft 470 kts 168°
2026-04-15 14:48 31.83108 118.95924 33712 ft 464 kts 168°
2026-04-15 14:48 31.80095 118.97274 33181 ft 464 kts 168°
2026-04-15 14:48 31.77075 118.98626 32667 ft 465 kts 168°
2026-04-15 14:48 31.74044 118.99982 32162 ft 467 kts 168°
2026-04-15 14:49 31.71004 119.01345 31648 ft 468 kts 167°
2026-04-15 14:49 31.67953 119.02711 31162 ft 471 kts 167°
2026-04-15 14:49 31.64880 119.04041 30685 ft 468 kts 171°
2026-04-15 14:49 31.61753 119.05044 30216 ft 466 kts 173°
2026-04-15 14:50 31.58627 119.06121 29695 ft 473 kts 167°
2026-04-15 14:50 31.55618 119.07740 29151 ft 480 kts 157°
2026-04-15 14:50 31.52828 119.09917 28620 ft 484 kts 149°
2026-04-15 14:50 31.50149 119.12287 28102 ft 481 kts 149°
2026-04-15 14:51 31.47484 119.14630 27635 ft 478 kts 149°
2026-04-15 14:51 31.44824 119.16944 27208 ft 474 kts 149°
2026-04-15 14:51 31.42177 119.19231 26766 ft 472 kts 150°
2026-04-15 14:51 31.39545 119.21512 26351 ft 470 kts 149°
2026-04-15 14:52 31.36962 119.23759 25947 ft 468 kts 149°
2026-04-15 14:52 31.34363 119.26025 25536 ft 465 kts 149°
2026-04-15 14:52 31.31771 119.28287 25139 ft 463 kts 149°
2026-04-15 14:52 31.29194 119.30537 24749 ft 461 kts 149°
2026-04-15 14:53 31.26630 119.32777 24364 ft 459 kts 149°
2026-04-15 14:53 31.24075 119.35003 23984 ft 457 kts 149°
2026-04-15 14:53 31.21531 119.37214 23608 ft 455 kts 148°
2026-04-15 14:53 31.19001 119.39412 23163 ft 452 kts 148°
2026-04-15 14:54 31.16489 119.41600 22717 ft 449 kts 148°
2026-04-15 14:54 31.13997 119.43781 22278 ft 446 kts 148°
2026-04-15 14:54 31.11527 119.45948 21838 ft 443 kts 148°
2026-04-15 14:54 31.09078 119.48096 21420 ft 439 kts 148°
2026-04-15 14:55 31.06645 119.50223 21000 ft 435 kts 148°
2026-04-15 14:55 31.04230 119.52330 20589 ft 432 kts 148°
2026-04-15 14:55 31.01832 119.54420 20175 ft 429 kts 148°
2026-04-15 14:55 30.99444 119.56496 19778 ft 427 kts 148°
2026-04-15 14:56 30.97068 119.58561 19369 ft 424 kts 147°
2026-04-15 14:56 30.94710 119.60611 18990 ft 422 kts 147°
2026-04-15 14:56 30.92365 119.62650 18608 ft 419 kts 147°
2026-04-15 14:56 30.90038 119.64671 18220 ft 416 kts 147°
2026-04-15 14:57 30.87725 119.66678 17774 ft 413 kts 147°
2026-04-15 14:57 30.85430 119.68667 17336 ft 409 kts 147°
2026-04-15 14:57 30.83156 119.70639 16906 ft 406 kts 147°
2026-04-15 14:57 30.80903 119.72599 16490 ft 403 kts 147°
2026-04-15 14:58 30.78665 119.74542 16063 ft 400 kts 147°
2026-04-15 14:58 30.76441 119.76468 15632 ft 397 kts 147°
2026-04-15 14:58 30.74233 119.78379 15240 ft 394 kts 147°
2026-04-15 14:58 30.72044 119.80272 14838 ft 391 kts 147°
2026-04-15 14:59 30.69882 119.82164 14442 ft 388 kts 146°
2026-04-15 14:59 30.67759 119.84076 14052 ft 384 kts 145°
2026-04-15 14:59 30.65669 119.85993 13630 ft 381 kts 144°
2026-04-15 14:59 30.63549 119.87785 13199 ft 372 kts 153°
2026-04-15 15:00 30.61311 119.89237 12771 ft 366 kts 154°
2026-04-15 15:00 30.59099 119.90648 12337 ft 360 kts 154°
2026-04-15 15:00 30.56914 119.92038 11924 ft 356 kts 154°
2026-04-15 15:00 30.54758 119.93408 11503 ft 351 kts 154°
2026-04-15 15:01 30.52628 119.94758 11094 ft 347 kts 154°
2026-04-15 15:01 30.50519 119.96090 10690 ft 343 kts 154°
2026-04-15 15:01 30.48462 119.97389 10290 ft 340 kts 154°
2026-04-15 15:01 30.46393 119.98696 9892 ft 337 kts 154°
2026-04-15 15:02 30.44340 119.99993 9457 ft 335 kts 154°
2026-04-15 15:02 30.42307 120.01282 9028 ft 332 kts 154°
2026-04-15 15:02 30.40294 120.02560 8604 ft 328 kts 154°
2026-04-15 15:02 30.38303 120.03826 8183 ft 325 kts 154°
2026-04-15 15:03 30.36330 120.05075 7762 ft 322 kts 153°
2026-04-15 15:03 30.34387 120.06335 7378 ft 318 kts 152°
2026-04-15 15:03 30.32503 120.07621 7067 ft 311 kts 151°
2026-04-15 15:03 30.30668 120.08902 6758 ft 305 kts 150°
2026-04-15 15:04 30.28874 120.10159 6449 ft 298 kts 150°
2026-04-15 15:04 30.27117 120.11389 6126 ft 292 kts 150°
2026-04-15 15:04 30.25408 120.12581 5798 ft 279 kts 150°
2026-04-15 15:04 30.23791 120.13702 5473 ft 263 kts 150°
2026-04-15 15:05 30.22261 120.14761 5159 ft 249 kts 150°
2026-04-15 15:05 30.20812 120.15763 4847 ft 237 kts 150°
2026-04-15 15:05 30.19420 120.16723 4496 ft 229 kts 150°
2026-04-15 15:05 30.18070 120.17655 4126 ft 223 kts 147°
2026-04-15 15:06 30.16265 120.20341 3663 ft 203 kts 108°
2026-04-15 15:06 30.16028 120.21911 3528 ft 195 kts 92°
2026-04-15 15:06 30.16189 120.23433 3308 ft 190 kts 75°
2026-04-15 15:07 30.16698 120.24820 3077 ft 187 kts 64°
2026-04-15 15:07 30.17092 120.25701 2919 ft 186 kts 64°
2026-04-15 15:07 30.17677 120.27016 2678 ft 182 kts 64°
2026-04-15 15:07 30.18248 120.28296 2437 ft 175 kts 64°
2026-04-15 15:08 30.18784 120.29501 2218 ft 163 kts 65°
2026-04-15 15:08 30.19282 120.30619 2018 ft 148 kts 65°
2026-04-15 15:08 30.19737 120.31641 1815 ft 140 kts 65°
2026-04-15 15:08 30.20174 120.32625 1633 ft 136 kts 65°
2026-04-15 15:09 30.20604 120.33593 1440 ft 134 kts 66°
2026-04-15 15:09 30.21033 120.34557 1277 ft 135 kts 65°
2026-04-15 15:09 30.21462 120.35523 1085 ft 135 kts 65°
2026-04-15 15:09 30.21892 120.36491 902 ft 135 kts 65°
2026-04-15 15:10 30.22321 120.37456 723 ft 135 kts 64°
2026-04-15 15:10 30.22749 120.38419 542 ft 135 kts 64°
2026-04-15 15:10 30.23175 120.39385 365 ft 136 kts 64°
2026-04-15 15:10 30.23610 120.40354 153 ft 135 kts 63°
2026-04-15 15:11 30.24029 120.41312 43 ft 126 kts 62°
2026-04-15 15:11 30.24384 120.42103 32 ft 86 kts 63°
2026-04-15 15:11 30.24576 120.42536 29 ft 45 kts 63°
2026-04-15 15:11 30.24690 120.42798 30 ft 25 kts 69°
2026-04-15 15:12 30.24721 120.42987 32 ft 24 kts 86°
2026-04-15 15:12 30.24721 120.43124 33 ft 11 kts 98°
2026-04-15 15:12 30.24672 120.43161 31 ft 8 kts 216°
2026-04-15 15:12 30.24639 120.43112 31 ft 7 kts 237°
2026-04-15 15:13 30.24616 120.43063 31 ft 7 kts 243°
2026-04-15 15:13 30.24571 120.42959 32 ft 20 kts 243°
2026-04-15 15:13 30.24508 120.42816 30 ft 20 kts 244°
2026-04-15 15:13 30.24415 120.42763 31 ft 17 kts 159°
2026-04-15 15:14 30.24313 120.42797 32 ft 15 kts 195°
2026-04-15 15:14 30.24221 120.42824 32 ft 14 kts 153°
2026-04-15 15:14 30.24155 120.42849 32 ft 7 kts 204°
2026-04-15 15:14 30.24129 120.42816 32 ft 5 kts 234°
2026-04-15 15:15 30.24121 120.42804 32 ft 0 kts 234°
2026-04-15 15:15 30.24121 120.42803 32 ft 0 kts 234°